GSAT-17

Last updated on Wed Sep 17 2025 00:02:35 GMT+0000 (Coordinated Universal Time)

1 42815U 17040B 25259.57822568 -.00000277 00000+0 00000+0 0 9993 2 42815 0.0148 208.7129 0005054 48.5709 40.1461 1.00269600 30048
UTC large
Height (km)
Speed (km/s)
/
Latitude / Longitude
Inclination (degrees)
Orbital Period (minutes)
Azimuth
Elevation
Range (km)
Doppler Factor

Next 0 passes for location: London (51.5072 / 0.1276)

Sorry there are no passes over London.